Gage, OK

7:14 PM CST on February 05, 2016 (GMT -0600)
Gage

Weather History for KGAG - June, 2013

Change the Weather History Date:

Thursday, June 20, 2013

  Actual Average Record
Temperature  
Mean Temperature 80 °F -  
Max Temperature 93 °F 89 °F 106 °F (1998)
Min Temperature 66 °F 64 °F 49 °F (1973)
Cooling Degree Days 14    
Growing Degree Days 30 (Base 50)    
Moisture  
Dew Point 64 °F    
Average Humidity 61    
Maximum Humidity 93    
Minimum Humidity 37    
Precipitation  
Precipitation 0.00 in - - ()
Sea Level Pressure  
Sea Level Pressure 29.81 in    
Wind  
Wind Speed 19 mph (South)    
Max Wind Speed 30 mph    
Max Gust Speed 44 mph    
Visibility 10 miles    
Events      
Averages and records for this station are not official NWS values.
T = Trace of Precipitation, MM = Missing Value Source: NWS Daily Summary

Daily Weather History Graph

Daily Weather History Graph

Search for Another Location

Airport or City:

Trip Planner

Search our weather history database for the weather conditions in past years. The results will help you decide how hot, cold, wet, or windy it might be!

Date:

Astronomy

Jun. 20, 2013 Rise Set
Actual Time 6:21 AM CDT 8:59 PM CDT
Civil Twilight 5:51 AM CDT 9:30 PM CDT
Nautical Twilight 5:13 AM CDT 10:08 PM CDT
Astronomical Twilight 4:31 AM CDT 10:50 PM CDT
Moon 6:07 PM CDT (6/20) 3:45 AM CDT (6/20)
Length of Visible Light 15h 39m
Length of Day
14h 38m
Waxing Gibbous, 89% of the Moon is Illuminated
Jun 20
Waxing Gibbous
Jun 23
Full
Jun 29
Last Quarter
Jul 8
New
Jul 15
First Quarter

Hourly Weather History & Observations

Time (CDT) Temp. Heat Index Dew Point Humidity Pressure Visibility Wind Dir Wind Speed Gust Speed Precip Events Conditions
12:53 AM 72.0 °F - 64.9 °F 78% 29.83 in 10.0 mi SSE 13.8 mph - N/A   Clear
1:53 AM 70.0 °F - 66.9 °F 90% 29.84 in 10.0 mi SSE 9.2 mph - N/A   Clear
2:53 AM 70.0 °F - 66.9 °F 90% 29.79 in 10.0 mi SSE 16.1 mph - N/A   Clear
3:53 AM 70.0 °F - 66.0 °F 87% 29.81 in 10.0 mi SSE 15.0 mph - N/A   Clear
4:53 AM 68.0 °F - 66.0 °F 93% 29.83 in 10.0 mi South 11.5 mph - N/A   Clear
5:53 AM 66.9 °F - 64.9 °F 93% 29.83 in 10.0 mi SSE 10.4 mph - N/A   Clear
6:53 AM 66.9 °F - 64.0 °F 90% 29.84 in 10.0 mi SSE 15.0 mph - N/A   Clear
7:53 AM 70.0 °F - 64.0 °F 81% 29.86 in 10.0 mi South 17.3 mph - N/A   Clear
8:53 AM 73.9 °F - 64.9 °F 73% 29.86 in 10.0 mi South 23.0 mph 26.5 mph N/A   Clear
9:53 AM 78.1 °F - 66.9 °F 68% 29.86 in 10.0 mi South 19.6 mph - N/A   Clear
10:53 AM 82.0 °F 84.5 °F 66.9 °F 60% 29.84 in 10.0 mi South 23.0 mph 32.2 mph N/A   Clear
11:53 AM 84.9 °F 87.6 °F 66.9 °F 55% 29.82 in 10.0 mi South 26.5 mph 38.0 mph N/A   Clear
12:53 PM 87.1 °F 90.6 °F 68.0 °F 53% 29.82 in 10.0 mi South 29.9 mph 35.7 mph N/A   Clear
1:53 PM 89.1 °F 91.3 °F 66.0 °F 46% 29.81 in 10.0 mi South 24.2 mph 32.2 mph N/A   Clear
2:53 PM 91.9 °F 95.9 °F 68.0 °F 45% 29.78 in 10.0 mi South 24.2 mph 33.4 mph N/A   Clear
3:53 PM 93.0 °F 94.2 °F 63.0 °F 37% 29.77 in 10.0 mi South 27.6 mph 38.0 mph N/A   Clear
4:53 PM 93.0 °F 94.2 °F 63.0 °F 37% 29.77 in 10.0 mi South 29.9 mph 41.4 mph N/A   Clear
5:53 PM 91.9 °F 92.5 °F 62.1 °F 37% 29.76 in 10.0 mi South 28.8 mph 41.4 mph N/A   Clear
6:53 PM 91.0 °F 91.5 °F 62.1 °F 38% 29.77 in 10.0 mi South 21.9 mph 32.2 mph N/A   Clear
7:53 PM 88.0 °F 87.9 °F 61.0 °F 40% 29.77 in 10.0 mi South 21.9 mph 29.9 mph N/A   Clear
8:53 PM 86.0 °F 86.1 °F 61.0 °F 43% 29.78 in 10.0 mi South 29.9 mph 36.8 mph N/A   Clear
9:53 PM 84.9 °F 84.8 °F 60.1 °F 43% 29.78 in 10.0 mi South 27.6 mph 38.0 mph N/A   Clear
10:53 PM 84.0 °F 83.8 °F 59.0 °F 43% 29.80 in 10.0 mi South 29.9 mph 36.8 mph N/A   Clear
11:53 PM 84.0 °F 84.0 °F 60.1 °F 44% 29.78 in 10.0 mi South 27.6 mph 43.7 mph N/A   Clear